User: anonymous   Login
Location: ???? ?????
(30.0052°N, 31.2891°E)
Time: 05:29:14
(UTC+00:00)
Language:

Cosmos 1726 Rocket - Orbit

View from above orbital plane
View from above orbital plane
View from above satellite
View from above satellite

Ground track
Ground track

The orbit data is extracted from the following two-line orbital elements,

1 16496U 86006B   22228.75870176  .00000261  00000-0  28170-4 0  9994
2 16496  82.5239  41.3861 0018245 325.8851  44.8260 14.84344470956072
Epoch (UTC): 16 August 2022 18:12:31
Eccentricity: 0.0018245
inclination: 82.5239°
perigee height: 603 km
apogee height: 628 km
right ascension of ascending node: 41.3861°
argument of perigee: 325.8851°
revolutions per day: 14.84344470
mean anomaly at epoch: 44.8260°
orbit number at epoch: 95607

The dashed part of the orbit path shows where the satellite is in the earth's shadow,  

DLR